"Sample Date","Sample Time","Sample Value","Units","Flow Rate","Sample Interval","Number Channels","Micron Size 0","Counts/Channel 0","Micron Size 1","Counts/Channel 1","Micron Size 2","Counts/Channel 2","Micron Size 3","Counts/Channel 3","Micron Size 4","Counts/Channel 4","Micron Size 5","Counts/Channel 5","Micron Size 6","Counts/Channel 6","Micron Size 7","Counts/Channel 7","Micron Size 8","Counts/Channel 8","Micron Size 9","Counts/Channel 9","Micron Size 10","Counts/Channel 10","Micron Size 11","Counts/Channel 11","Micron Size 12","Counts/Channel 12","Micron Size 13","Counts/Channel 13","Micron Size 14","Counts/Channel 14","Micron Size 15","Counts/Channel 15","Micron Size 16","Counts/Channel 16","Micron Size 17","Counts/Channel 17","Micron Size 18","Counts/Channel 18","Micron Size 19","Counts/Channel 19","Micron Size 20","Counts/Channel 20","Micron Size 21","Counts/Channel 21","Micron Size 22","Counts/Channel 22","Micron Size 23","Counts/Channel 23","Micron Size 24","Counts/Channel 24","Micron Size 25","Counts/Channel 25","Micron Size 26","Counts/Channel 26","Micron Size 27","Counts/Channel 27","Micron Size 28","Counts/Channel 28","Micron Size 29","Counts/Channel 29","Micron Size 30","Counts/Channel 30","Micron Size 31","Counts/Channel 31"
"04/02/08","05:00:01",16454.000,"cc",28337.779,6.00,6,0.100,14635.000,0.200,675.000,0.300,410.000,0.500,498.000,1.000,236.000,5.000,0
"04/02/08","05:00:07",16358.000,"cc",28373.389,6.00,6,0.100,14554.000,0.200,665.000,0.300,376.000,0.500,549.000,1.000,214.000,5.000,0
"04/02/08","05:00:13",15553.000,"cc",28353.467,6.00,6,0.100,13911.000,0.200,600.000,0.300,380.000,0.500,484.000,1.000,178.000,5.000,0
"04/02/08","05:00:19",16207.000,"cc",28335.283,6.00,6,0.100,14449.000,0.200,653.000,0.300,382.000,0.500,528.000,1.000,195.000,5.000,0
"04/02/08","05:00:25",15808.000,"cc",28338.414,6.00,6,0.100,14037.000,0.200,673.000,0.300,370.000,0.500,513.000,1.000,215.000,5.000,0
"04/02/08","05:00:31",15890.000,"cc",28298.484,6.00,6,0.100,14226.000,0.200,630.000,0.300,361.000,0.500,474.000,1.000,199.000,5.000,0
"04/02/08","05:00:37",16075.000,"cc",28311.576,6.00,6,0.100,14286.000,0.200,688.000,0.300,388.000,0.500,509.000,1.000,204.000,5.000,0
"04/02/08","05:00:43",16369.000,"cc",28248.856,6.00,6,0.100,14574.000,0.200,672.000,0.300,411.000,0.500,512.000,1.000,200.000,5.000,0
"04/02/08","05:00:49",16263.000,"cc",28325.484,6.00,6,0.100,14400.000,0.200,721.000,0.300,427.000,0.500,509.000,1.000,206.000,5.000,0
"04/02/08","05:00:55",15589.000,"cc",28339.531,6.00,6,0.100,13948.000,0.200,676.000,0.300,363.000,0.500,443.000,1.000,159.000,5.000,0
"04/02/08","05:01:01",15592.000,"cc",28315.936,6.00,6,0.100,13885.000,0.200,661.000,0.300,381.000,0.500,471.000,1.000,194.000,5.000,0
"04/02/08","05:01:07",15775.000,"cc",28275.410,6.00,6,0.100,14024.000,0.200,659.000,0.300,383.000,0.500,494.000,1.000,215.000,5.000,0
"04/02/08","05:01:13",15880.000,"cc",28316.293,6.00,6,0.100,14112.000,0.200,650.000,0.300,389.000,0.500,522.000,1.000,207.000,5.000,0
"04/02/08","05:01:19",15662.000,"cc",28268.453,6.00,6,0.100,13853.000,0.200,701.000,0.300,436.000,0.500,497.000,1.000,175.000,5.000,0
"04/02/08","05:01:25",15751.000,"cc",28298.740,6.00,6,0.100,14076.000,0.200,644.000,0.300,359.000,0.500,481.000,1.000,191.000,5.000,0
"04/02/08","05:01:31",15828.000,"cc",28409.531,6.00,6,0.100,14138.000,0.200,623.000,0.300,389.000,0.500,475.000,1.000,203.000,5.000,0
"04/02/08","05:01:37",15865.000,"cc",28347.666,6.00,6,0.100,14136.000,0.200,692.000,0.300,353.000,0.500,483.000,1.000,201.000,5.000,0
"04/02/08","05:01:43",15804.000,"cc",28346.328,6.00,6,0.100,14012.000,0.200,705.000,0.300,408.000,0.500,470.000,1.000,209.000,5.000,0
"04/02/08","05:01:49",15419.000,"cc",28282.734,6.00,6,0.100,13735.000,0.200,648.000,0.300,380.000,0.500,469.000,1.000,187.000,5.000,0
"04/02/08","05:01:55",15378.000,"cc",28329.926,6.00,6,0.100,13685.000,0.200,645.000,0.300,390.000,0.500,465.000,1.000,193.000,5.000,0
"04/02/08","05:02:01",14964.000,"cc",28300.936,6.00,6,0.100,13219.000,0.200,682.000,0.300,364.000,0.500,479.000,1.000,220.000,5.000,0
"04/02/08","05:02:07",14858.000,"cc",28317.691,6.00,6,0.100,13185.000,0.200,634.000,0.300,406.000,0.500,460.000,1.000,173.000,5.000,0
"04/02/08","05:02:13",14344.000,"cc",28301.178,6.00,6,0.100,12740.000,0.200,627.000,0.300,342.000,0.500,464.000,1.000,171.000,5.000,0
"04/02/08","05:02:19",14234.000,"cc",28220.301,6.00,6,0.100,12691.000,0.200,579.000,0.300,348.000,0.500,434.000,1.000,182.000,5.000,0
"04/02/08","05:02:25",14339.000,"cc",28259.893,6.00,6,0.100,12814.000,0.200,580.000,0.300,348.000,0.500,425.000,1.000,172.000,5.000,0
"04/02/08","05:02:31",14458.000,"cc",28435.611,6.00,6,0.100,12762.000,0.200,679.000,0.300,352.000,0.500,478.000,1.000,187.000,5.000,0
"04/02/08","05:02:37",14547.000,"cc",28327.465,6.00,6,0.100,12919.000,0.200,575.000,0.300,382.000,0.500,481.000,1.000,190.000,5.000,0
"04/02/08","05:02:43",14382.000,"cc",28364.873,6.00,6,0.100,12733.000,0.200,620.000,0.300,367.000,0.500,457.000,1.000,205.000,5.000,0
"04/02/08","05:02:49",14684.000,"cc",28327.500,6.00,6,0.100,12991.000,0.200,603.000,0.300,392.000,0.500,487.000,1.000,211.000,5.000,0
"04/02/08","05:02:55",15008.000,"cc",28331.969,6.00,6,0.100,13225.000,0.200,625.000,0.300,398.000,0.500,542.000,1.000,218.000,5.000,0
"04/02/08","05:03:01",15444.000,"cc",28309.391,6.00,6,0.100,13596.000,0.200,708.000,0.300,397.000,0.500,526.000,1.000,217.000,5.000,0
"04/02/08","05:03:07",15107.000,"cc",28281.660,6.00,6,0.100,13313.000,0.200,666.000,0.300,384.000,0.500,541.000,1.000,203.000,5.000,0
"04/02/08","05:03:13",15015.000,"cc",28359.861,6.00,6,0.100,13241.000,0.200,683.000,0.300,404.000,0.500,482.000,1.000,205.000,5.000,0
"04/02/08","05:03:19",14898.000,"cc",28256.315,6.00,6,0.100,13240.000,0.200,601.000,0.300,369.000,0.500,500.000,1.000,188.000,5.000,0
"04/02/08","05:03:25",15046.000,"cc",28307.096,6.00,6,0.100,13247.000,0.200,689.000,0.300,401.000,0.500,514.000,1.000,195.000,5.000,0
"04/02/08","05:03:31",15222.000,"cc",28317.369,6.00,6,0.100,13418.000,0.200,682.000,0.300,384.000,0.500,496.000,1.000,242.000,5.000,0
"04/02/08","05:03:37",15106.000,"cc",28301.375,6.00,6,0.100,13244.000,0.200,679.000,0.300,461.000,0.500,508.000,1.000,214.000,5.000,0
"04/02/08","05:03:43",14966.000,"cc",28313.367,6.00,6,0.100,13272.000,0.200,666.000,0.300,355.000,0.500,484.000,1.000,189.000,5.000,0
"04/02/08","05:03:49",15141.000,"cc",28383.307,6.00,6,0.100,13351.000,0.200,612.000,0.300,421.000,0.500,555.000,1.000,202.000,5.000,0
"04/02/08","05:03:55",15515.000,"cc",28314.805,6.00,6,0.100,13620.000,0.200,715.000,0.300,420.000,0.500,549.000,1.000,211.000,5.000,0
"04/02/08","05:04:01",14930.000,"cc",28327.303,6.00,6,0.100,13229.000,0.200,615.000,0.300,394.000,0.500,500.000,1.000,192.000,5.000,0
"04/02/08","05:04:07",15058.000,"cc",28316.518,6.00,6,0.100,13387.000,0.200,615.000,0.300,371.000,0.500,513.000,1.000,172.000,5.000,0
"04/02/08","05:04:13",15191.000,"cc",28190.346,6.00,6,0.100,13583.000,0.200,593.000,0.300,403.000,0.500,435.000,1.000,177.000,5.000,0
"04/02/08","05:04:19",14700.000,"cc",28348.092,6.00,6,0.100,13067.000,0.200,608.000,0.300,387.000,0.500,463.000,1.000,175.000,5.000,0
"04/02/08","05:04:25",15176.000,"cc",28366.080,6.00,6,0.100,13429.000,0.200,671.000,0.300,392.000,0.500,486.000,1.000,198.000,5.000,0
"04/02/08","05:04:31",15410.000,"cc",28332.510,6.00,6,0.100,13674.000,0.200,676.000,0.300,363.000,0.500,503.000,1.000,194.000,5.000,0
"04/02/08","05:04:37",15339.000,"cc",28339.648,6.00,6,0.100,13612.000,0.200,659.000,0.300,411.000,0.500,448.000,1.000,209.000,5.000,0
"04/02/08","05:04:43",15407.000,"cc",28272.635,6.00,6,0.100,13679.000,0.200,684.000,0.300,371.000,0.500,475.000,1.000,198.000,5.000,0
"04/02/08","05:04:49",14704.000,"cc",28345.176,6.00,6,0.100,13195.000,0.200,563.000,0.300,361.000,0.500,412.000,1.000,173.000,5.000,0
"04/02/08","05:04:55",14679.000,"cc",28261.699,6.00,6,0.100,13078.000,0.200,606.000,0.300,335.000,0.500,473.000,1.000,187.000,5.000,0
"04/02/08","05:05:01",14652.000,"cc",28291.244,6.00,6,0.100,13065.000,0.200,614.000,0.300,341.000,0.500,436.000,1.000,196.000,5.000,0
"04/02/08","05:05:07",14507.000,"cc",28316.061,6.00,6,0.100,12880.000,0.200,656.000,0.300,327.000,0.500,456.000,1.000,188.000,5.000,0
"04/02/08","05:05:13",14609.000,"cc",28349.731,6.00,6,0.100,12941.000,0.200,638.000,0.300,369.000,0.500,470.000,1.000,191.000,5.000,0
"04/02/08","05:05:19",14050.000,"cc",28404.119,6.00,6,0.100,12683.000,0.200,572.000,0.300,269.000,0.500,366.000,1.000,160.000,5.000,0
"04/02/08","05:05:25",14058.000,"cc",28282.266,6.00,6,0.100,12598.000,0.200,548.000,0.300,341.000,0.500,415.000,1.000,156.000,5.000,0
"04/02/08","05:05:31",14331.000,"cc",28264.607,6.00,6,0.100,12836.000,0.200,588.000,0.300,335.000,0.500,417.000,1.000,155.000,5.000,0
"04/02/08","05:05:37",14334.000,"cc",28291.469,6.00,6,0.100,12863.000,0.200,570.000,0.300,348.000,0.500,392.000,1.000,161.000,5.000,0
"04/02/08","05:05:43",14341.000,"cc",28383.916,6.00,6,0.100,13000.000,0.200,530.000,0.300,287.000,0.500,354.000,1.000,170.000,5.000,0
"04/02/08","05:05:49",13989.000,"cc",28259.701,6.00,6,0.100,12550.000,0.200,576.000,0.300,319.000,0.500,393.000,1.000,151.000,5.000,0
"04/02/08","05:05:55",14372.000,"cc",28312.891,6.00,6,0.100,12820.000,0.200,591.000,0.300,342.000,0.500,453.000,1.000,166.000,5.000,0
"04/02/08","05:06:01",14252.000,"cc",28355.367,6.00,6,0.100,12715.000,0.200,579.000,0.300,325.000,0.500,433.000,1.000,200.000,5.000,0
"04/02/08","05:06:07",14472.000,"cc",28301.246,6.00,6,0.100,12971.000,0.200,591.000,0.300,330.000,0.500,391.000,1.000,189.000,5.000,0
"04/02/08","05:06:13",14438.000,"cc",28318.129,6.00,6,0.100,12985.000,0.200,559.000,0.300,321.000,0.500,402.000,1.000,171.000,5.000,0
"04/02/08","05:06:19",14667.000,"cc",28353.008,6.00,6,0.100,13215.000,0.200,566.000,0.300,318.000,0.500,404.000,1.000,164.000,5.000,0
"04/02/08","05:06:25",14524.000,"cc",28357.936,6.00,6,0.100,13112.000,0.200,587.000,0.300,286.000,0.500,391.000,1.000,148.000,5.000,0
"04/02/08","05:06:31",14489.000,"cc",28287.904,6.00,6,0.100,13084.000,0.200,580.000,0.300,294.000,0.500,364.000,1.000,167.000,5.000,0
"04/02/08","05:06:37",14509.000,"cc",28259.578,6.00,6,0.100,13025.000,0.200,561.000,0.300,326.000,0.500,404.000,1.000,193.000,5.000,0
"04/02/08","05:06:43",14386.000,"cc",28274.881,6.00,6,0.100,12860.000,0.200,610.000,0.300,335.000,0.500,419.000,1.000,162.000,5.000,0
"04/02/08","05:06:49",14796.000,"cc",28273.104,6.00,6,0.100,13300.000,0.200,593.000,0.300,340.000,0.500,407.000,1.000,156.000,5.000,0
"04/02/08","05:06:55",14540.000,"cc",28355.982,6.00,6,0.100,13123.000,0.200,531.000,0.300,327.000,0.500,406.000,1.000,153.000,5.000,0
"04/02/08","05:07:01",14633.000,"cc",28338.229,6.00,6,0.100,13034.000,0.200,640.000,0.300,349.000,0.500,437.000,1.000,173.000,5.000,0
"04/02/08","05:07:07",14764.000,"cc",28295.561,6.00,6,0.100,13215.000,0.200,604.000,0.300,321.000,0.500,434.000,1.000,190.000,5.000,0
"04/02/08","05:07:13",14673.000,"cc",28425.367,6.00,6,0.100,13245.000,0.200,543.000,0.300,324.000,0.500,399.000,1.000,162.000,5.000,0
"04/02/08","05:07:19",14599.000,"cc",28311.117,6.00,6,0.100,13061.000,0.200,611.000,0.300,338.000,0.500,429.000,1.000,160.000,5.000,0
"04/02/08","05:07:25",14110.000,"cc",28245.902,6.00,6,0.100,12595.000,0.200,576.000,0.300,358.000,0.500,408.000,1.000,173.000,5.000,0
"04/02/08","05:07:31",14479.000,"cc",28375.828,6.00,6,0.100,13022.000,0.200,591.000,0.300,315.000,0.500,398.000,1.000,153.000,5.000,0
"04/02/08","05:07:37",14462.000,"cc",28327.428,6.00,6,0.100,13028.000,0.200,577.000,0.300,329.000,0.500,375.000,1.000,153.000,5.000,0
"04/02/08","05:07:43",14509.000,"cc",28345.596,6.00,6,0.100,13058.000,0.200,613.000,0.300,279.000,0.500,380.000,1.000,179.000,5.000,0
"04/02/08","05:07:49",14650.000,"cc",28362.523,6.00,6,0.100,13093.000,0.200,616.000,0.300,356.000,0.500,416.000,1.000,169.000,5.000,0
"04/02/08","05:07:55",14754.000,"cc",28278.828,6.00,6,0.100,13159.000,0.200,602.000,0.300,348.000,0.500,461.000,1.000,184.000,5.000,0
"04/02/08","05:08:01",14421.000,"cc",28303.924,6.00,6,0.100,12833.000,0.200,617.000,0.300,327.000,0.500,447.000,1.000,197.000,5.000,0
"04/02/08","05:08:07",14717.000,"cc",28365.684,6.00,6,0.100,13208.000,0.200,605.000,0.300,312.000,0.500,420.000,1.000,172.000,5.000,0
"04/02/08","05:08:13",14890.000,"cc",28246.674,6.00,6,0.100,13352.000,0.200,593.000,0.300,333.000,0.500,435.000,1.000,177.000,5.000,0
"04/02/08","05:08:19",15284.000,"cc",28300.379,6.00,6,0.100,13597.000,0.200,601.000,0.300,394.000,0.500,473.000,1.000,219.000,5.000,0
"04/02/08","05:08:25",14906.000,"cc",28308.486,6.00,6,0.100,13246.000,0.200,653.000,0.300,353.000,0.500,478.000,1.000,176.000,5.000,0
"04/02/08","05:08:31",15194.000,"cc",28293.102,6.00,6,0.100,13504.000,0.200,669.000,0.300,366.000,0.500,463.000,1.000,192.000,5.000,0
"04/02/08","05:08:37",15309.000,"cc",28336.082,6.00,6,0.100,13651.000,0.200,673.000,0.300,340.000,0.500,479.000,1.000,166.000,5.000,0
"04/02/08","05:08:43",14910.000,"cc",28356.381,6.00,6,0.100,13356.000,0.200,569.000,0.300,329.000,0.500,448.000,1.000,208.000,5.000,0
"04/02/08","05:08:49",15283.000,"cc",28205.699,6.00,6,0.100,13653.000,0.200,631.000,0.300,365.000,0.500,440.000,1.000,194.000,5.000,0
"04/02/08","05:08:55",15114.000,"cc",28346.420,6.00,6,0.100,13451.000,0.200,626.000,0.300,357.000,0.500,493.000,1.000,187.000,5.000,0
"04/02/08","05:09:01",15199.000,"cc",28355.117,6.00,6,0.100,13529.000,0.200,602.000,0.300,397.000,0.500,453.000,1.000,218.000,5.000,0
"04/02/08","05:09:07",15239.000,"cc",28296.287,6.00,6,0.100,13609.000,0.200,589.000,0.300,351.000,0.500,493.000,1.000,197.000,5.000,0
"04/02/08","05:09:13",14953.000,"cc",28368.502,6.00,6,0.100,13294.000,0.200,601.000,0.300,380.000,0.500,500.000,1.000,178.000,5.000,0
"04/02/08","05:09:19",14804.000,"cc",28274.121,6.00,6,0.100,13118.000,0.200,615.000,0.300,383.000,0.500,483.000,1.000,205.000,5.000,0
"04/02/08","05:09:25",14665.000,"cc",28314.066,6.00,6,0.100,12960.000,0.200,668.000,0.300,349.000,0.500,479.000,1.000,209.000,5.000,0
"04/02/08","05:09:31",14966.000,"cc",28245.453,6.00,6,0.100,13278.000,0.200,665.000,0.300,383.000,0.500,456.000,1.000,184.000,5.000,0
"04/02/08","05:09:37",14640.000,"cc",28303.572,6.00,6,0.100,13015.000,0.200,636.000,0.300,379.000,0.500,447.000,1.000,163.000,5.000,0
"04/02/08","05:09:43",14902.000,"cc",28250.648,6.00,6,0.100,13292.000,0.200,611.000,0.300,374.000,0.500,449.000,1.000,176.000,5.000,0
"04/02/08","05:09:49",14459.000,"cc",28277.440,6.00,6,0.100,12930.000,0.200,554.000,0.300,368.000,0.500,453.000,1.000,154.000,5.000,0
"04/02/08","05:09:55",14788.000,"cc",28332.701,6.00,6,0.100,13088.000,0.200,643.000,0.300,384.000,0.500,489.000,1.000,184.000,5.000,0
"04/02/08","05:10:01",15079.000,"cc",28358.018,6.00,6,0.100,13280.000,0.200,707.000,0.300,421.000,0.500,477.000,1.000,194.000,5.000,0
"04/02/08","05:10:07",14999.000,"cc",28412.846,6.00,6,0.100,13360.000,0.200,624.000,0.300,355.000,0.500,462.000,1.000,198.000,5.000,0
"04/02/08","05:10:13",15146.000,"cc",28306.225,6.00,6,0.100,13638.000,0.200,565.000,0.300,356.000,0.500,425.000,1.000,162.000,5.000,0
"04/02/08","05:10:19",15151.000,"cc",28365.738,6.00,6,0.100,13594.000,0.200,570.000,0.300,353.000,0.500,458.000,1.000,176.000,5.000,0
"04/02/08","05:10:25",15237.000,"cc",28355.703,6.00,6,0.100,13644.000,0.200,610.000,0.300,354.000,0.500,433.000,1.000,196.000,5.000,0
"04/02/08","05:10:31",15537.000,"cc",28296.973,6.00,6,0.100,13810.000,0.200,685.000,0.300,350.000,0.500,496.000,1.000,196.000,5.000,0
"04/02/08","05:10:37",15477.000,"cc",28290.229,6.00,6,0.100,13714.000,0.200,657.000,0.300,410.000,0.500,480.000,1.000,216.000,5.000,0
"04/02/08","05:10:43",15244.000,"cc",28341.504,6.00,6,0.100,13591.000,0.200,625.000,0.300,400.000,0.500,437.000,1.000,191.000,5.000,0
"04/02/08","05:10:49",15334.000,"cc",28205.356,6.00,6,0.100,13670.000,0.200,611.000,0.300,387.000,0.500,490.000,1.000,176.000,5.000,0
"04/02/08","05:10:55",15346.000,"cc",28254.535,6.00,6,0.100,13596.000,0.200,667.000,0.300,378.000,0.500,503.000,1.000,202.000,5.000,0
"04/02/08","05:11:01",15349.000,"cc",28281.832,6.00,6,0.100,13710.000,0.200,653.000,0.300,352.000,0.500,437.000,1.000,197.000,5.000,0
"04/02/08","05:11:07",15663.000,"cc",28388.301,6.00,6,0.100,13978.000,0.200,647.000,0.300,361.000,0.500,478.000,1.000,199.000,5.000,0
"04/02/08","05:11:13",15720.000,"cc",28342.217,6.00,6,0.100,14051.000,0.200,656.000,0.300,358.000,0.500,452.000,1.000,203.000,5.000,0
"04/02/08","05:11:19",15669.000,"cc",28320.293,6.00,6,0.100,14028.000,0.200,652.000,0.300,357.000,0.500,442.000,1.000,190.000,5.000,0
"04/02/08","05:11:25",15615.000,"cc",28306.260,6.00,6,0.100,13975.000,0.200,639.000,0.300,369.000,0.500,451.000,1.000,181.000,5.000,0
"04/02/08","05:11:31",15644.000,"cc",28307.076,6.00,6,0.100,13980.000,0.200,654.000,0.300,343.000,0.500,469.000,1.000,198.000,5.000,0
"04/02/08","05:11:37",15856.000,"cc",28322.998,6.00,6,0.100,14098.000,0.200,656.000,0.300,398.000,0.500,496.000,1.000,208.000,5.000,0
"04/02/08","05:11:43",15782.000,"cc",28274.525,6.00,6,0.100,13946.000,0.200,636.000,0.300,428.000,0.500,539.000,1.000,233.000,5.000,0
"04/02/08","05:11:49",15740.000,"cc",28324.346,6.00,6,0.100,13964.000,0.200,677.000,0.300,380.000,0.500,505.000,1.000,214.000,5.000,0
"04/02/08","05:11:55",15708.000,"cc",28397.647,6.00,6,0.100,13901.000,0.200,675.000,0.300,383.000,0.500,550.000,1.000,198.000,5.000,1.000
"04/02/08","05:12:01",15520.000,"cc",28293.785,6.00,6,0.100,13847.000,0.200,633.000,0.300,372.000,0.500,492.000,1.000,176.000,5.000,0
"04/02/08","05:12:07",15886.000,"cc",28404.965,6.00,6,0.100,14116.000,0.200,646.000,0.300,380.000,0.500,512.000,1.000,232.000,5.000,0
"04/02/08","05:12:13",15481.000,"cc",28327.543,6.00,6,0.100,13804.000,0.200,639.000,0.300,381.000,0.500,469.000,1.000,188.000,5.000,0
"04/02/08","05:12:19",15603.000,"cc",28335.404,6.00,6,0.100,14016.000,0.200,614.000,0.300,347.000,0.500,453.000,1.000,173.000,5.000,0
"04/02/08","05:12:25",15730.000,"cc",28204.678,6.00,6,0.100,14002.000,0.200,660.000,0.300,357.000,0.500,508.000,1.000,203.000,5.000,0
"04/02/08","05:12:31",15646.000,"cc",28245.629,6.00,6,0.100,13933.000,0.200,645.000,0.300,401.000,0.500,466.000,1.000,201.000,5.000,0
"04/02/08","05:12:37",15628.000,"cc",28398.637,6.00,6,0.100,13964.000,0.200,643.000,0.300,364.000,0.500,478.000,1.000,179.000,5.000,0
"04/02/08","05:12:43",15610.000,"cc",28356.523,6.00,6,0.100,13856.000,0.200,644.000,0.300,416.000,0.500,509.000,1.000,185.000,5.000,0
"04/02/08","05:12:49",15511.000,"cc",28310.135,6.00,6,0.100,13777.000,0.200,700.000,0.300,370.000,0.500,478.000,1.000,186.000,5.000,0
"04/02/08","05:12:55",15162.000,"cc",28328.813,6.00,6,0.100,13478.000,0.200,584.000,0.300,395.000,0.500,496.000,1.000,209.000,5.000,0
"04/02/08","05:13:01",15536.000,"cc",28278.334,6.00,6,0.100,13704.000,0.200,658.000,0.300,394.000,0.500,535.000,1.000,245.000,5.000,0
"04/02/08","05:13:07",15602.000,"cc",28292.928,6.00,6,0.100,13656.000,0.200,680.000,0.300,454.000,0.500,562.000,1.000,250.000,5.000,0
"04/02/08","05:13:13",15507.000,"cc",28276.303,6.00,6,0.100,13686.000,0.200,645.000,0.300,429.000,0.500,530.000,1.000,217.000,5.000,0
"04/02/08","05:13:19",15698.000,"cc",28387.172,6.00,6,0.100,13890.000,0.200,682.000,0.300,403.000,0.500,508.000,1.000,215.000,5.000,0
"04/02/08","05:13:25",15362.000,"cc",28292.441,6.00,6,0.100,13633.000,0.200,672.000,0.300,415.000,0.500,458.000,1.000,184.000,5.000,0
"04/02/08","05:13:31",15237.000,"cc",28310.658,6.00,6,0.100,13533.000,0.200,632.000,0.300,384.000,0.500,494.000,1.000,194.000,5.000,0
"04/02/08","05:13:37",15161.000,"cc",28338.357,6.00,6,0.100,13419.000,0.200,633.000,0.300,386.000,0.500,511.000,1.000,212.000,5.000,0
"04/02/08","05:13:43",15480.000,"cc",28352.617,6.00,6,0.100,13811.000,0.200,644.000,0.300,382.000,0.500,445.000,1.000,198.000,5.000,0
"04/02/08","05:13:49",15154.000,"cc",28322.195,6.00,6,0.100,13509.000,0.200,619.000,0.300,354.000,0.500,481.000,1.000,191.000,5.000,0
"04/02/08","05:13:55",15046.000,"cc",28324.463,6.00,6,0.100,13543.000,0.200,614.000,0.300,325.000,0.500,412.000,1.000,152.000,5.000,0
"04/02/08","05:14:01",15234.000,"cc",28282.643,6.00,6,0.100,13591.000,0.200,649.000,0.300,317.000,0.500,483.000,1.000,194.000,5.000,0
"04/02/08","05:14:07",15176.000,"cc",28319.459,6.00,6,0.100,13478.000,0.200,655.000,0.300,363.000,0.500,477.000,1.000,203.000,5.000,0
"04/02/08","05:14:13",15064.000,"cc",28262.850,6.00,6,0.100,13544.000,0.200,570.000,0.300,333.000,0.500,434.000,1.000,183.000,5.000,0
"04/02/08","05:14:19",14914.000,"cc",28289.441,6.00,6,0.100,13302.000,0.200,647.000,0.300,355.000,0.500,435.000,1.000,175.000,5.000,0
"04/02/08","05:14:25",15095.000,"cc",28403.387,6.00,6,0.100,13612.000,0.200,576.000,0.300,313.000,0.500,435.000,1.000,159.000,5.000,0
"04/02/08","05:14:31",14996.000,"cc",28303.434,6.00,6,0.100,13387.000,0.200,583.000,0.300,368.000,0.500,479.000,1.000,179.000,5.000,0
"04/02/08","05:14:37",14851.000,"cc",28178.256,6.00,6,0.100,13207.000,0.200,613.000,0.300,363.000,0.500,476.000,1.000,192.000,5.000,0
"04/02/08","05:14:43",15161.000,"cc",28283.934,6.00,6,0.100,13483.000,0.200,649.000,0.300,371.000,0.500,480.000,1.000,178.000,5.000,0
"04/02/08","05:14:49",14904.000,"cc",28336.225,6.00,6,0.100,13331.000,0.200,596.000,0.300,365.000,0.500,424.000,1.000,188.000,5.000,0
"04/02/08","05:14:55",15072.000,"cc",28377.402,6.00,6,0.100,13493.000,0.200,607.000,0.300,359.000,0.500,442.000,1.000,171.000,5.000,0
"04/02/08","05:15:01",15019.000,"cc",28350.938,6.00,6,0.100,13338.000,0.200,655.000,0.300,365.000,0.500,459.000,1.000,202.000,5.000,0
"04/02/08","05:15:07",14823.000,"cc",28427.272,6.00,6,0.100,13183.000,0.200,625.000,0.300,333.000,0.500,479.000,1.000,203.000,5.000,0
"04/02/08","05:15:13",14569.000,"cc",28278.031,6.00,6,0.100,13002.000,0.200,596.000,0.300,350.000,0.500,442.000,1.000,179.000,5.000,0
"04/02/08","05:15:19",14790.000,"cc",28278.311,6.00,6,0.100,13033.000,0.200,661.000,0.300,379.000,0.500,507.000,1.000,210.000,5.000,0
"04/02/08","05:15:25",14339.000,"cc",28278.650,6.00,6,0.100,12722.000,0.200,605.000,0.300,352.000,0.500,469.000,1.000,191.000,5.000,0
"04/02/08","05:15:31",14597.000,"cc",28345.268,6.00,6,0.100,13095.000,0.200,580.000,0.300,307.000,0.500,428.000,1.000,187.000,5.000,0
"04/02/08","05:15:37",14206.000,"cc",28360.469,6.00,6,0.100,12737.000,0.200,568.000,0.300,314.000,0.500,396.000,1.000,191.000,5.000,0
"04/02/08","05:15:43",14205.000,"cc",28351.080,6.00,6,0.100,12686.000,0.200,586.000,0.300,339.000,0.500,400.000,1.000,194.000,5.000,0
"04/02/08","05:15:49",13970.000,"cc",28323.248,6.00,6,0.100,12566.000,0.200,555.000,0.300,297.000,0.500,384.000,1.000,168.000,5.000,0
"04/02/08","05:15:55",14139.000,"cc",28273.336,6.00,6,0.100,12779.000,0.200,536.000,0.300,306.000,0.500,349.000,1.000,169.000,5.000,0
"04/02/08","05:16:01",13779.000,"cc",28312.664,6.00,6,0.100,12505.000,0.200,497.000,0.300,277.000,0.500,354.000,1.000,146.000,5.000,0
"04/02/08","05:16:07",14031.000,"cc",28307.982,6.00,6,0.100,12495.000,0.200,612.000,0.300,333.000,0.500,392.000,1.000,199.000,5.000,0
"04/02/08","05:16:13",14258.000,"cc",28249.391,6.00,6,0.100,12721.000,0.200,563.000,0.300,342.000,0.500,437.000,1.000,195.000,5.000,0
"04/02/08","05:16:19",14134.000,"cc",28239.440,6.00,6,0.100,12714.000,0.200,547.000,0.300,314.000,0.500,390.000,1.000,169.000,5.000,0
"04/02/08","05:16:25",14374.000,"cc",28386.231,6.00,6,0.100,12916.000,0.200,568.000,0.300,333.000,0.500,378.000,1.000,179.000,5.000,0
"04/02/08","05:16:31",14301.000,"cc",28285.475,6.00,6,0.100,12808.000,0.200,555.000,0.300,325.000,0.500,427.000,1.000,186.000,5.000,0
"04/02/08","05:16:37",14366.000,"cc",28303.877,6.00,6,0.100,12860.000,0.200,549.000,0.300,332.000,0.500,434.000,1.000,191.000,5.000,0
"04/02/08","05:16:43",14333.000,"cc",28342.701,6.00,6,0.100,12861.000,0.200,562.000,0.300,348.000,0.500,401.000,1.000,161.000,5.000,0